Location: Collins
(38.1658°N, 122.2525°W)
Time: 12:06:12
(UTC+00:00)

Daily predictions for brighter satellites

Satellite Brightness Start Highest point End
(mag) Time Altitude Azimuth Time Altitude Azimuth Time Altitude Azimuth
PSLV R/B 3.7 12:01:23 10° NNE 12:05:46 80° ESE 12:10:06 10° S
Cosmos 2285 Rocket 4.4 12:03:36 20° SW 12:07:45 45° WNW 12:13:46 10° N
Cosmos 468 4.5 12:04:28 10° NNW 12:09:43 67° WSW 12:14:56 10° S
OAO 3 Rocket 3.3 12:07:27 19° WSW 12:10:55 61° S 12:15:46 10° ESE
ARIANE 5 R/B 3.9 12:07:42 10° NNW 12:11:42 23° WNW 12:14:18 16° WSW
Hubble Space Telescope 3.0 12:09:58 11° S 12:11:46 13° SSE 12:13:46 10° SE
H-2A R/B (2) 2.8 12:12:20 15° SSW 12:12:56 16° S 12:15:09 10° SE
Cosmos 1844 Rocket 2.7 12:07:41 10° SSW 12:13:11 82° ESE 12:18:47 10° NNE
deb Chang Zheng 4 4.0 12:11:32 10° NNE 12:15:51 63° ESE 12:20:09 10° S
Cosmos 2228 3.4 12:12:57 16° SSW 12:16:08 44° W 12:20:21 10° N
Atlas Centaur 2 3.5 12:11:47 16° SW 12:17:05 42° SSE 12:24:45 10° E
Cosmos 1386 Rocket 4.4 12:15:49 10° N 12:21:50 74° W 12:27:48 10° S
SAR-Lupe-4 4.2 12:23:05 10° SSE 12:26:36 60° ENE 12:30:08 10° N
NOSS 2-2 (D) 3.3 12:24:02 10° SSW 12:27:32 69° ESE 12:31:13 10° NE
NOSS 2-2 (E) 3.0 12:24:39 13° SSW 12:27:48 86° WNW 12:31:34 10° NNE
Cosmos 2058 Rocket 3.1 12:25:23 10° SSW 12:29:51 69° W 12:34:18 10° N
Meteor 2-15 Rocket 4.4 12:26:00 10° SSW 12:32:04 77° W 12:38:10 10° N
CZ-2C R/B 4.3 12:30:01 10° NNW 12:32:48 19° WNW 12:35:08 12° WSW
USA 267 3.3 12:26:46 10° SE 12:33:18 87° SW 12:39:53 10° NW
Cosmos 883 Rocket 4.5 12:28:51 10° SSW 12:35:02 75° W 12:41:20 10° N
Lacrosse 5 rocket 4.5 12:34:02 10° SE 12:35:02 11° ESE 12:36:03 10° ESE
IDEFIX/ARIANE 42P 4.0 12:33:38 10° NNW 12:37:21 20° WNW 12:41:03 10° WSW
Cosmos 1125 Rocket 4.5 12:34:07 11° WSW 12:38:24 30° WNW 12:43:02 10° N
Cosmos 1689 Rocket 4.4 12:36:25 10° SE 12:38:59 29° ENE 12:41:33 10° N
ADEOS 3.6 12:34:58 10° NNE 12:40:14 88° WNW 12:45:26 10° SSW
Cosmos 1745 Rocket 4.3 12:34:15 10° NNW 12:40:14 48° W 12:46:07 10° SSW
SAR-Lupe-1 4.0 12:38:13 10° SSE 12:41:47 89° WSW 12:45:23 10° NNW
H-2A R/B 3.1 12:38:57 10° SSW 12:42:13 22° W 12:45:28 10° NW
Cosmos 1943 4.3 12:39:02 10° NW 12:43:11 22° W 12:47:20 10° SSW
CZ-4B R/B 1.2 12:42:46 10° S 12:46:02 68° W 12:49:14 10° NNW
OAO 2 Rocket 3.9 12:41:40 10° WSW 12:46:45 50° SSE 12:51:46 10° E
Cosmos 494 Rocket 4.2 12:42:45 10° NNW 12:47:44 50° WSW 12:52:44 10° S
SeaSat 1 3.3 12:47:12 10° N 12:51:39 34° WNW 12:56:04 10° WSW
ASTRO F (AKARI) 4.2 12:48:59 10° NNE 12:52:05 88° E 12:55:10 10° SSW
